#timestamp,LO_Frequency,Hit,StdDev 
1697929215.7,286047001.7,N
1697929235.5,286047001.6,N
1697929255.4,286047004.1,Y
1697929275.2,286047002.4,P
1697929295.0,286047002.5,P
1697929295.9,286047002.5,P
1697929315.8,286047002.6,Y
1697929335.6,286047000.5,P
1697929355.4,286046998.1,N
1697929375.3,286046999.9,N
1697929395.1,286047000.2,N
1697929415.9,286047002.3,N
1697929435.7,286047002.3,N
1697929455.5,286046999.7,N
1697929475.4,286047002.6,N
1697929495.2,286047002.6,N
1697929515.0,286047002.4,N
1697929515.9,286047002.4,N
1697929535.8,286047000.2,N
1697929555.6,286047002.4,N
1697929575.5,286047000.1,N
1697929595.3,286047002.6,N
1697929615.1,286047002.5,N
1697929635.9,286046999.8,N
1697929655.7,286047002.8,N
1697929675.5,286047002.7,N
1697929695.4,286047000.2,N
1697929715.2,286047000.3,N
1697929735.1,286047000.6,N
1697929736.0,286047000.6,N
1697929755.8,286046999.8,N
1697929775.6,286047000.1,N
1697929795.5,286047000.5,N
1697929815.3,286046999.8,N
1697929835.1,286046999.9,N
1697929855.9,286047000.1,N
1697929875.7,286047002.8,N
1697929895.6,286046999.8,N
1697929915.4,286047000.5,N
1697929935.2,286047000.9,N
1697929955.1,286047000.4,N
1697929956.0,286047000.4,N
1697929975.8,286047000.0,N
1697929995.6,286047001.1,N
1697930015.5,286046998.2,N
1697930035.3,286047001.1,N
1697930055.2,286046998.3,N
1697930075.9,286046998.1,N
1697930095.7,286046998.4,N
1697930115.6,286046998.3,N
1697930135.4,286046998.6,N
1697930155.2,286046998.3,N
1697930175.1,286046998.1,N
1697930176.0,286046998.1,N
1697930195.8,286046998.2,N
1697930215.7,286046998.1,N
1697930235.5,286046998.4,N
1697930255.3,286046998.4,N
1697930275.2,286046998.5,N
1697930295.0,286046998.7,N
1697930295.9,286046998.7,N
1697930315.7,286046998.4,N
1697930335.6,286046998.5,N
1697930355.4,286046998.5,N
1697930375.3,286047001.1,N
1697930395.1,286046998.6,N
1697930396.0,286046998.6,N
1697930415.8,286047000.7,N
1697930435.7,286046999.4,N
1697930455.5,286046998.7,N
1697930475.4,286046998.4,N
1697930495.2,286046999.3,N
1697930515.0,286046998.8,N
1697930515.9,286046998.8,N
1697930535.8,286046999.1,N
1697930555.6,286046998.8,N
1697930575.4,286046999.3,N
1697930595.3,286046998.7,N
1697930615.1,286046998.6,N
1697930635.9,286046998.8,N
1697930655.7,286046998.4,N
1697930675.5,286046999.2,N
1697930695.4,286046996.6,Y
1697930715.2,286046999.1,P
1697930735.1,286046998.8,P
1697930736.0,286046998.8,P
1697930755.8,286046998.4,Y
1697930775.6,286047000.5,P
1697930795.5,286046998.7,N
1697930815.3,286046998.2,N
1697930835.1,286046998.1,N
1697930855.9,286046998.5,N
1697930875.7,286047000.9,N
1697930895.6,286047000.6,N
1697930915.4,286047000.3,N
1697930935.2,286047001.0,N
1697930955.1,286047000.7,N
1697930956.0,286047000.7,N
1697930975.8,286047000.0,N
1697930995.7,286046999.9,N
1697931015.5,286047000.8,N
1697931035.3,286047000.3,N
1697931055.2,286047000.7,N
1697931075.9,286047000.5,N
1697931095.7,286047000.6,N
1697931115.6,286047000.5,N
1697931135.4,286047000.5,N
1697931155.2,286047000.6,N
1697931175.1,286047000.7,N
1697931176.0,286047000.7,N
1697931195.8,286047000.9,N
1697931215.7,286047001.0,N
1697931235.5,286047000.0,N
1697931255.3,286047000.2,N
1697931275.2,286046999.9,N
1697931295.0,286046999.8,N
1697931295.9,286046999.8,N
1697931315.8,286046999.8,N
1697931335.6,286046999.9,N
1697931355.4,286047000.4,N
1697931375.3,286046999.9,N
1697931395.1,286047000.3,N
1697931415.8,286047001.0,N
1697931435.7,286047000.4,N
1697931455.5,286046999.7,N
1697931475.4,286047000.3,N
1697931495.2,286047002.4,Y
1697931515.0,286047002.7,P
1697931515.9,286047002.7,N
1697931535.8,286047002.8,N
1697931555.6,286047002.7,N
1697931575.4,286047000.1,N
1697931595.3,286046999.9,N
1697931615.1,286047000.0,N
1697931635.9,286047000.0,N
1697931655.7,286047002.4,N
1697931675.5,286047002.3,N
1697931695.4,286047002.7,N
1697931715.2,286046999.7,N
1697931735.0,286047000.8,N
1697931735.9,286047000.8,N
1697931755.8,286047000.3,N
1697931775.6,286046999.8,N
1697931795.5,286047002.4,N
1697931815.3,286047002.7,N
1697931835.1,286047000.1,N
1697931855.9,286047002.7,N
1697931875.7,286047000.0,N
1697931895.5,286047000.9,N
1697931915.4,286047001.0,N
1697931935.2,286046999.7,N
1697931955.1,286047000.1,N
1697931956.0,286047000.1,N
1697931975.8,286047002.4,N
1697931995.6,286047000.1,N
1697932015.5,286047002.8,N
1697932035.3,286047000.4,N
1697932055.1,286047002.8,N
1697932075.9,286047002.5,N
1697932095.7,286047002.1,N
1697932115.6,286047002.0,N
1697932135.4,286047002.0,N
1697932155.2,286047002.7,N
1697932175.1,286047001.9,N
1697932176.0,286047001.9,N
1697932195.8,286047001.7,N
1697932215.6,286047001.5,N
1697932235.5,286047004.0,Y
1697932255.3,286047002.2,P
1697932275.2,286047002.0,P
1697932295.0,286047002.1,P
1697932295.9,286047002.1,Y
1697932315.7,286047000.4,P
1697932335.6,286047000.4,N
1697932355.4,286046999.7,N
1697932375.3,286047002.3,N
1697932395.1,286047002.7,N
1697932396.0,286047002.7,N
1697932415.8,286047002.6,N
1697932435.7,286047002.2,N
1697932455.5,286047002.7,N
1697932475.4,286046999.9,N
1697932495.2,286047002.1,N
1697932515.0,286047002.3,N
1697932515.9,286047002.3,N
1697932535.8,286047001.6,N
1697932555.6,286047000.2,N
1697932575.4,286047002.6,N
1697932595.3,286047002.0,N
1697932615.1,286047001.4,N
1697932635.9,286047001.5,N
1697932655.7,286047001.4,N
1697932675.5,286047001.3,N
1697932695.4,286047001.3,N
1697932715.2,286047001.9,N
1697932735.0,286047001.3,N
1697932735.9,286047001.3,N
1697932755.8,286047001.4,N
1697932775.6,286047002.6,N
1697932795.5,286047001.4,N
